Flag for Germany Weather past 2 weeks in Hückelhoven, North Rhine-Westphalia, Germany

Now
68 °F

Scattered showers. Partly cloudy.


Feels Like: 68 °F
Forecast: 51 / 60 °F
Wind: 13 mph from South

Location: Geilenkirchen Airport

Current Time: May 5, 2015 at 8:12:14 AM

Latest Report: May 5, 2015 at 6:50 AM


Visibility: N/A

Pressure: 29.45 "Hg

Humidity: 69%

Dew point: 57 °F

Location of HückelhovenLocation

Historic Weather in Hückelhoven — Graph

°F

Hückelhoven temperature yesterday

Maximum temperature yesterday: 72 °F (at 4:50 PM)
Minimum temperature yesterday: 57 °F (at 1:50 AM)
Average temperature yesterday: 62 °F

Past Weeks' High & Low Weather Summary

 TemperatureHumidityPressure
High72 °F (Apr 24, 4:50 PM)100% (Apr 22, 5:50 AM)30.48 "Hg (Apr 22, 5:50 AM)
Low32 °F (Apr 28, 6:50 AM)30% (Apr 20, 3:50 PM)29.42 "Hg (May 5, 3:50 AM)
Average53 °F68%30.02 "Hg
* Reported Apr 20 6:50 AM — May 5 6:50 AM, Hückelhoven, Weather by CustomWeather, © 2015

Note: Actual official high and low records may vary slightly from our data, if they occured in-between our weather recording intervals... More about our weather records

Advertising

Hückelhoven weather history for previous 24 hours

 ConditionsComfort  
Time TempWeatherWind HumidityBarometerVisibility
6:50 AM
Tue, May 5
68 °FScattered showers. Partly cloudy.13 mph69%29.45 "HgN/A
5:50 AM64 °FClear.5 mph78%29.42 "Hg10 mi
4:50 AM66 °FClear.2 mph73%29.42 "Hg10 mi
3:50 AM64 °FClear.5 mph83%29.42 "Hg10 mi
2:50 AM61 °FClear.7 mph88%29.45 "Hg10 mi
1:50 AM59 °FRain. Passing clouds.5 mph94%29.47 "HgN/A
12:50 AM59 °FLight rain. Passing clouds.14 mph94%29.50 "HgN/A
11:50 PM
Mon, May 4
59 °FLight rain. Passing clouds.13 mph94%29.53 "HgN/A
10:50 PM61 °FLight rain. Passing clouds.10 mph83%29.59 "HgN/A
9:50 PM63 °FLight rain. Partly sunny.7 mph73%29.62 "HgN/A
8:50 PM68 °FSunny.3 mph53%29.65 "Hg10 mi
7:50 PM66 °FSunny.5 mph68%29.68 "Hg10 mi
6:50 PM66 °FPartly sunny.9 mph64%29.74 "HgN/A
5:50 PM68 °FPartly sunny.12 mph60%29.74 "HgN/A
4:50 PM72 °FBroken clouds.3 mph50%29.74 "HgN/A
3:50 PM68 °FBroken clouds.6 mph53%29.77 "HgN/A
2:50 PM66 °FBroken clouds.7 mph56%29.80 "HgN/A
1:50 PM64 °FBroken clouds.9 mph60%29.80 "HgN/A
12:50 PM63 °FBroken clouds.8 mph64%29.83 "HgN/A
11:50 AM61 °FBroken clouds.7 mph72%29.83 "HgN/A
10:50 AM59 °FBroken clouds.9 mph77%29.80 "HgN/A
9:50 AM59 °FBroken clouds.8 mph77%29.80 "HgN/A
8:50 AM57 °FPartly sunny.9 mph82%29.80 "HgN/A
Weather by CustomWeather, © 2015

See weather overviewHow to use our weather pages